Regional Weather Roundup
Issued by NWS Raleigh/Durham, NC

Home | Current Version | Previous Version | Text Only | Print | Product List | Glossary On
Versions: 1 2 3 4 5 6 7 8 9 10 11 12 13 14 15 16 17 18 19 20 21 22 23 24 25 26 27 28 29 30 31 32 33 34 35 36 37 38 39 40 41 42 43 44 45 46 47 48 49 50
000
ASUS42 KRAH 280110
RWRRAH
NORTH CAROLINA WEATHER ROUNDUP
NATIONAL WEATHER SERVICE RALEIGH NC
800 PM EST FRI FEB 27 2015

NOTE: "FAIR" INDICATES FEW OR NO CLOUDS BELOW 12,000 FEET WITH NO
SIGNIFICANT WEATHER AND/OR OBSTRUCTIONS TO VISIBILITY.

NCZ001-053-055-056-065-067-280200-
WESTERN NORTH CAROLINA

CITY           SKY/WX    TMP DP  RH WIND       PRES   REMARKS
ASHEVILLE      CLEAR     28  14  55 N12       30.40R WCI  18
JEFFERSON      CLEAR     23  12  62 NW5       30.34S WCI  17
MORGANTON      CLEAR     35  17  48 CALM      30.45R
HICKORY        CLEAR     37  14  38 NE7       30.41R WCI  32
RUTHERFORDTON  CLEAR     39  20  47 N6        30.41R WCI  34
MOUNT AIRY     CLEAR     33  16  48 N6        30.46R WCI  28
BOONE          CLEAR     23  14  68 W8        30.35S WCI  14
$$

NCZ021-022-025-041-071-084-088-280200-
CENTRAL NORTH CAROLINA

CITY           SKY/WX    TMP DP  RH WIND       PRES   REMARKS
CHARLOTTE      CLEAR     42  24  49 E7        30.42R
GREENSBORO     CLEAR     36  18  48 NE8       30.44R WCI  30
WINSTON-SALEM  CLEAR     36  15  42 NE9       30.45R WCI  29
RALEIGH-DURHAM PTCLDY    36  20  52 NE3       30.48R
FORT BRAGG     NOT AVBL
FAYETTEVILLE   CLEAR     40  27  59 N9        30.45R WCI  34
BURLINGTON     CLEAR     35  19  52 NE6       30.46R WCI  30
LAURINBURG     CLEAR     41  27  57 NE10      30.44R
$$

NCZ011-015-027-028-043-044-047-080-103-280200-
NORTHEASTERN NORTH CAROLINA

CITY           SKY/WX    TMP DP  RH WIND       PRES   REMARKS
ROCKY MT-WILSO CLEAR     36  23  59 N6        30.49R WCI  31
GREENVILLE     CLEAR     37  28  70 NE13      30.47R WCI  29
WASHINGTON     CLEAR     35  27  73 NE9G16    30.50R WCI  27
ELIZABETH CITY CLEAR     31  26  82 NE12      30.52R WCI  22
MANTEO         FAIR      34  28  80 NE16      30.50R WCI  23
CAPE HATTERAS  FAIR      37  31  78 NE9       30.47R WCI  30
$$

NCZ078-087-090-091-093-098-101-280200-
SOUTHEASTERN NORTH CAROLINA

CITY           SKY/WX    TMP DP  RH WIND       PRES   REMARKS
LUMBERTON      CLEAR     45  30  55 NE7       30.43R
GOLDSBORO      CLEAR     41  33  73 N1        30.45R
KINSTON        CLEAR     37  27  65 N5        30.47R WCI  34
KENANSVILLE    PTCLDY    39  28  66 CALM      30.47R
NEW BERN       CLEAR     38  27  64 N3        30.47R
CHERRY POINT   PTCLDY    40  30  67 NE9       30.47R WCI  34
BEAUFORT       MOCLDY    37  30  75 NE7       30.47R WCI  32
JACKSONVILLE   PTCLDY    41  30  65 N6        30.45R
WILMINGTON     MOCLDY    38  35  89 CALM      30.44R
$$




USA.gov is the U.S. government's official web portal to all federal, state and local government web resources and services.